Weather History for Marshfield, MA

Change the Weather History Date:

Monday, February 18, 2013

  Actual Average (KPYM) Record (KPYM)
Temperature  
Mean Temperature 26 °F -  
Max Temperature 33 °F 37 °F 59 °F (1981)
Min Temperature 19 °F 18 °F -6 °F (1979)
Degree Days  
Heating Degree Days 39    
Moisture  
Dew Point 2 °F    
Average Humidity 35    
Maximum Humidity 49    
Minimum Humidity 23    
Precipitation  
Precipitation 0.00 in - - ()
Sea Level Pressure  
Sea Level Pressure 29.96 in    
Wind  
Wind Speed 14 mph (West)    
Max Wind Speed 25 mph    
Max Gust Speed 33 mph    
Visibility 10 miles    
Events      
Averages and records for this station are not official NWS values.
T = Trace of Precipitation, MM = Missing Value Source: NWS Daily Summary

Daily Weather History Graph

Daily Weather History Graph

Search for Another Location

Airport:

Trip Planner

Search our weather history database for the weather conditions in past years. The results will help you decide how hot, cold, wet, or windy it might be!

Date:

Astronomy

Feb. 18, 2013 Rise Set
Actual Time 6:34 AM EST 5:19 PM EST
Civil Twilight 6:05 AM EST 5:48 PM EST
Nautical Twilight 5:33 AM EST 6:20 PM EST
Astronomical Twilight 5:00 AM EST 6:53 PM EST
Moon 11:00 AM EST 1:13 AM EST
Length of Visible Light 11h 42m
Length of Day
10h 45m
First Quarter, 58% of the Moon is Illuminated
Feb 18
First Quarter
Feb 25
Full
Mar 4
Last Quarter
Mar 11
New
Mar 19
First Quarter

Hourly Weather History & Observations

Time (EST) Temp. Windchill Dew Point Humidity Pressure Visibility Wind Dir Wind Speed Gust Speed Precip Events Conditions
12:15 AM 21.2 °F 8.3 °F 3.2 °F 46% 29.67 in 10.0 mi West 13.8 mph 31.1 mph N/A   Partly Cloudy
12:35 AM 21.2 °F 7.8 °F 3.2 °F 46% 29.67 in 9.0 mi West 15.0 mph 25.3 mph N/A   Clear
1:15 AM 21.2 °F 8.9 °F 3.2 °F 46% 29.68 in 8.0 mi West 12.7 mph 26.5 mph N/A   Clear
1:55 AM 19.4 °F 6.6 °F 1.4 °F 46% 29.70 in 10.0 mi West 12.7 mph 26.5 mph N/A   Clear
2:15 AM 19.4 °F 7.2 °F 3.2 °F 49% 29.71 in 10.0 mi West 11.5 mph 23.0 mph N/A   Clear
2:35 AM 19.4 °F 5.5 °F 3.2 °F 49% 29.72 in 10.0 mi West 15.0 mph 23.0 mph N/A   Clear
2:55 AM 19.4 °F 4.5 °F 1.4 °F 46% 29.73 in 10.0 mi West 17.3 mph 27.6 mph N/A   Clear
3:15 AM 19.4 °F 5.5 °F 3.2 °F 49% 29.74 in 10.0 mi West 15.0 mph 26.5 mph N/A   Clear
3:35 AM 19.4 °F 4.5 °F 1.4 °F 46% 29.75 in 10.0 mi West 17.3 mph 28.8 mph N/A   Clear
3:55 AM 19.4 °F 5.5 °F 1.4 °F 46% 29.76 in 10.0 mi West 15.0 mph 23.0 mph N/A   Clear
4:15 AM 19.4 °F 4.5 °F 1.4 °F 46% 29.77 in 10.0 mi West 17.3 mph 24.2 mph N/A   Clear
4:35 AM 19.4 °F 5.5 °F 1.4 °F 46% 29.79 in 10.0 mi West 15.0 mph 26.5 mph N/A   Clear
4:55 AM 19.4 °F 6.0 °F 1.4 °F 46% 29.80 in 10.0 mi West 13.8 mph 32.2 mph N/A   Clear
5:15 AM 19.4 °F 6.0 °F 1.4 °F 46% 29.81 in 10.0 mi West 13.8 mph 23.0 mph N/A   Clear
5:35 AM 19.4 °F 6.0 °F 1.4 °F 46% 29.82 in 10.0 mi West 13.8 mph 25.3 mph N/A   Clear
6:15 AM 19.4 °F 4.5 °F 1.4 °F 46% 29.85 in 10.0 mi West 17.3 mph 26.5 mph N/A   Clear
6:35 AM 19.4 °F 6.0 °F 1.4 °F 46% 29.86 in 10.0 mi West 13.8 mph 27.6 mph N/A   Clear
6:55 AM 19.4 °F 5.0 °F 1.4 °F 46% 29.87 in 10.0 mi West 16.1 mph 28.8 mph N/A   Clear
7:15 AM 19.4 °F 6.6 °F 1.4 °F 46% 29.89 in 10.0 mi West 12.7 mph 26.5 mph N/A   Light Freezing Rain
7:35 AM 19.4 °F 3.6 °F 1.4 °F 46% 29.89 in 10.0 mi West 19.6 mph 28.8 mph N/A   Clear
7:55 AM 19.4 °F 4.1 °F 1.4 °F 46% 29.90 in 10.0 mi West 18.4 mph 32.2 mph N/A   Clear
8:15 AM 21.2 °F 7.3 °F 1.4 °F 42% 29.91 in 10.0 mi West 16.1 mph 27.6 mph N/A   Clear
8:35 AM 21.2 °F 7.3 °F 3.2 °F 46% 29.92 in 10.0 mi West 16.1 mph 33.4 mph N/A   Clear
9:15 AM 23.0 °F 10.1 °F 3.2 °F 43% 29.94 in 10.0 mi West 15.0 mph 31.1 mph N/A   Clear
9:55 AM 26.6 °F 14.7 °F 3.2 °F 37% 29.95 in 10.0 mi West 15.0 mph 26.5 mph N/A   Clear
10:15 AM 26.6 °F 13.4 °F 3.2 °F 37% 29.94 in 10.0 mi West 18.4 mph 31.1 mph N/A   Clear
10:35 AM 28.4 °F 15.4 °F 3.2 °F 34% 29.95 in 10.0 mi West 19.6 mph 29.9 mph N/A   Clear
10:55 AM 28.4 °F 17.0 °F 3.2 °F 34% 29.95 in 10.0 mi West 15.0 mph 31.1 mph N/A   Clear
11:15 AM 30.2 °F 19.3 °F 3.2 °F 32% 29.95 in 10.0 mi West 15.0 mph 25.3 mph N/A   Clear
11:35 AM 30.2 °F 20.2 °F 1.4 °F 29% 29.95 in 10.0 mi West 12.7 mph 27.6 mph N/A   Clear
11:55 AM 32.0 °F 21.2 °F 3.2 °F 30% 29.96 in 10.0 mi West 16.1 mph 33.4 mph N/A   Clear
12:15 PM 32.0 °F 18.6 °F 1.4 °F 27% 29.96 in 10.0 mi West 25.3 mph 33.4 mph N/A   Clear
12:35 PM 32.0 °F 20.5 °F 1.4 °F 27% 29.96 in 10.0 mi West 18.4 mph 28.8 mph N/A   Clear
12:55 PM 32.0 °F 22.1 °F 3.2 °F 30% 29.97 in 10.0 mi West 13.8 mph 26.5 mph N/A   Clear
1:15 PM 32.0 °F 21.2 °F 1.4 °F 27% 29.98 in 10.0 mi West 16.1 mph 28.8 mph N/A   Clear
1:35 PM 32.0 °F 20.8 °F -0.4 °F 25% 29.98 in 10.0 mi West 17.3 mph 29.9 mph N/A   Clear
1:55 PM 32.0 °F 20.5 °F -0.4 °F 25% 29.98 in 10.0 mi West 18.4 mph 28.8 mph N/A   Clear
2:15 PM 33.8 °F 23.9 °F 1.4 °F 25% 29.99 in 10.0 mi West 15.0 mph 25.3 mph N/A   Clear
2:35 PM 32.0 °F 20.1 °F -0.4 °F 25% 30.00 in 10.0 mi West 19.6 mph 27.6 mph N/A   Clear
2:55 PM 33.8 °F 23.5 °F -0.4 °F 23% 30.00 in 10.0 mi West 16.1 mph 24.2 mph N/A   Clear
3:15 PM 33.8 °F 24.8 °F -0.4 °F 23% 30.01 in 10.0 mi West 12.7 mph 27.6 mph N/A   Clear
3:35 PM 33.8 °F 23.2 °F 1.4 °F 25% 30.02 in 10.0 mi West 17.3 mph - N/A   Clear
3:55 PM 32.0 °F 22.5 °F 1.4 °F 27% 30.02 in 10.0 mi WSW 12.7 mph 24.2 mph N/A   Clear
4:15 PM 32.0 °F 24.2 °F 1.4 °F 27% 30.04 in 10.0 mi West 9.2 mph 19.6 mph N/A   Clear
4:35 PM 32.0 °F 23.0 °F -0.4 °F 25% 30.05 in 10.0 mi WSW 11.5 mph 18.4 mph N/A   Clear
4:55 PM 32.0 °F 27.5 °F 1.4 °F 27% 30.06 in 10.0 mi WSW 4.6 mph - N/A   Clear
5:15 PM 32.0 °F 23.6 °F -0.4 °F 25% 30.07 in 10.0 mi WSW 10.4 mph 17.3 mph N/A   Clear
5:35 PM 30.2 °F 24.3 °F -0.4 °F 27% 30.08 in 10.0 mi WSW 5.8 mph - N/A   Clear
5:55 PM 30.2 °F 24.3 °F -0.4 °F 27% 30.09 in 10.0 mi WSW 5.8 mph - N/A   Clear
6:15 PM 30.2 °F 24.3 °F -0.4 °F 27% 30.10 in 10.0 mi WSW 5.8 mph - N/A   Clear
6:35 PM 30.2 °F 23.4 °F -0.4 °F 27% 30.11 in 10.0 mi WSW 6.9 mph - N/A   Clear
6:55 PM 30.2 °F 24.3 °F -0.4 °F 27% 30.11 in 10.0 mi SW 5.8 mph - N/A   Clear
7:35 PM 30.2 °F 23.4 °F 1.4 °F 29% 30.13 in 10.0 mi WSW 6.9 mph - N/A   Clear
7:55 PM 28.4 °F 21.2 °F 1.4 °F 31% 30.13 in 10.0 mi WSW 6.9 mph - N/A   Clear
8:15 PM 28.4 °F 21.2 °F 1.4 °F 31% 30.14 in 10.0 mi SW 6.9 mph - N/A   Clear
8:35 PM 28.4 °F 22.2 °F 1.4 °F 31% 30.14 in 10.0 mi WSW 5.8 mph - N/A   Clear
8:55 PM 28.4 °F 20.4 °F 1.4 °F 31% 30.14 in 10.0 mi WSW 8.1 mph - N/A   Clear
9:15 PM 28.4 °F 20.4 °F 1.4 °F 31% 30.15 in 10.0 mi WSW 8.1 mph - N/A   Clear
9:35 PM 28.4 °F 21.2 °F 1.4 °F 31% 30.14 in 10.0 mi WSW 6.9 mph 16.1 mph N/A   Clear
9:55 PM 28.4 °F 22.2 °F 1.4 °F 31% 30.14 in 10.0 mi WSW 5.8 mph - N/A   Clear
10:15 PM 26.6 °F 20.0 °F 1.4 °F 34% 30.15 in 10.0 mi WSW 5.8 mph - N/A   Clear
10:35 PM 26.6 °F 18.2 °F 1.4 °F 34% 30.16 in 10.0 mi WSW 8.1 mph - N/A   Clear
10:55 PM 26.6 °F 18.2 °F 1.4 °F 34% 30.16 in 10.0 mi WSW 8.1 mph - N/A   Clear
11:15 PM 26.6 °F 17.5 °F 1.4 °F 34% 30.16 in 10.0 mi WSW 9.2 mph - N/A   Clear
11:35 PM 26.6 °F 18.2 °F 1.4 °F 34% 30.17 in 10.0 mi SW 8.1 mph - N/A   Clear
11:55 PM 26.6 °F 17.5 °F 3.2 °F 37% 30.17 in 10.0 mi WSW 9.2 mph - N/A   Clear